When you browse on this site, cookies collect data to enhance your experience and personalize the content and advertising you see.
Visit our Privacy Policy to learn more. By continuing to use the site, you agree to this use of cookies and data.
  • En España
  • Lista de países
  • Para 7 días
  • Temperatura del agua
  • El tiempo en el mapa
  • Informadores
  • user-avatar
    Iniciar sesión

    Tiempo cada hora Cairo

    Hoy, 16 Diciembre, Lunes

    Tiempo Temperatura Precipitaciones Viento Presión Humedad
    00:00 +15°C° 0 mm 1 mps 759 mmHg 72%
    01:00 +14°C° 0 mm 1 mps 760 mmHg 73%
    02:00 +14°C° 0 mm 2 mps 760 mmHg 77%
    03:00 +14°C° 0 mm 2 mps 760 mmHg 77%
    04:00 +13°C° 0 mm 3 mps 760 mmHg 77%
    05:00 +12°C° 0 mm 3 mps 760 mmHg 77%
    06:00 +13°C° 0 mm 3 mps 761 mmHg 74%
    07:00 +13°C° 0 mm 3 mps 761 mmHg 71%
    08:00 +14°C° 0 mm 2 mps 762 mmHg 68%
    09:00 +16°C° 0 mm 3 mps 762 mmHg 62%
    10:00 +18°C° 0 mm 4 mps 762 mmHg 55%
    11:00 +20°C° 0 mm 5 mps 763 mmHg 48%
    12:00 +20°C° 0 mm 5 mps 762 mmHg 45%
    13:00 +21°C° 0 mm 5 mps 762 mmHg 42%
    14:00 +22°C° 0 mm 6 mps 762 mmHg 39%
    15:00 +21°C° 0 mm 6 mps 762 mmHg 42%
    16:00 +20°C° 0 mm 5 mps 762 mmHg 45%
    17:00 +20°C° 0 mm 5 mps 762 mmHg 48%
    18:00 +19°C° 0 mm 5 mps 762 mmHg 55%
    19:00 +17°C° 0 mm 5 mps 763 mmHg 62%
    20:00 +16°C° 0 mm 5 mps 763 mmHg 69%
    21:00 +15°C° 0 mm 4 mps 763 mmHg 71%
    22:00 +15°C° 0 mm 4 mps 763 mmHg 73%
    23:00 +14°C° 0 mm 3 mps 764 mmHg 75%

    Mañana, 17 Diciembre, Martes

    Tiempo Temperatura Precipitaciones Viento Presión Humedad
    00:00 +14°C° 0 mm 3 mps 763 mmHg 77%
    01:00 +14°C° 0 mm 3 mps 763 mmHg 79%
    02:00 +14°C° 0 mm 2 mps 763 mmHg 80%
    03:00 +14°C° 0 mm 2 mps 763 mmHg 82%
    04:00 +14°C° 0 mm 2 mps 763 mmHg 84%
    05:00 +14°C° 0 mm 2 mps 763 mmHg 86%
    06:00 +14°C° 0 mm 2 mps 764 mmHg 84%
    07:00 +15°C° 0 mm 2 mps 764 mmHg 81%
    08:00 +15°C° 0 mm 2 mps 764 mmHg 79%
    09:00 +17°C° 0 mm 3 mps 764 mmHg 70%
    10:00 +18°C° 0 mm 4 mps 764 mmHg 61%
    11:00 +20°C° 0 mm 5 mps 764 mmHg 53%
    12:00 +21°C° 0 mm 5 mps 764 mmHg 49%
    13:00 +22°C° 0 mm 4 mps 764 mmHg 44%
    14:00 +22°C° 0 mm 4 mps 763 mmHg 40%
    15:00 +22°C° 0 mm 4 mps 763 mmHg 43%
    16:00 +21°C° 0 mm 4 mps 763 mmHg 46%
    17:00 +20°C° 0 mm 4 mps 764 mmHg 49%
    18:00 +19°C° 0 mm 4 mps 764 mmHg 57%
    19:00 +18°C° 0 mm 4 mps 764 mmHg 65%
    20:00 +18°C° 0 mm 4 mps 765 mmHg 72%
    21:00 +17°C° 0 mm 4 mps 765 mmHg 73%
    22:00 +17°C° 0 mm 4 mps 765 mmHg 74%
    23:00 +15°C° 0 mm 4 mps 765 mmHg 75%

    Pasado mañana, 18 Diciembre, Miércoles

    Tiempo Temperatura Precipitaciones Viento Presión Humedad
    00:00 +15°C° 0 mm 4 mps 765 mmHg 76%
    01:00 +16°C° 0 mm 3 mps 765 mmHg 78%
    02:00 +14°C° 0 mm 3 mps 765 mmHg 80%
    03:00 +14°C° 0 mm 3 mps 765 mmHg 81%
    04:00 +14°C° 0 mm 3 mps 765 mmHg 82%
    05:00 +13°C° 0 mm 3 mps 765 mmHg 83%
    06:00 +14°C° 0 mm 3 mps 765 mmHg 81%
    07:00 +14°C° 0 mm 3 mps 766 mmHg 78%
    08:00 +14°C° 0 mm 4 mps 766 mmHg 76%
    09:00 +17°C° 0 mm 4 mps 766 mmHg 66%
    10:00 +19°C° 0 mm 5 mps 766 mmHg 55%
    11:00 +21°C° 0 mm 5 mps 765 mmHg 45%
    12:00 +21°C° 0 mm 5 mps 765 mmHg 41%
    13:00 +22°C° 0 mm 6 mps 764 mmHg 37%
    14:00 +23°C° 0 mm 6 mps 764 mmHg 34%
    15:00 +22°C° 0 mm 6 mps 764 mmHg 36%
    16:00 +21°C° 0 mm 5 mps 764 mmHg 39%
    17:00 +20°C° 0 mm 5 mps 764 mmHg 41%
    18:00 +19°C° 0 mm 5 mps 765 mmHg 47%
    19:00 +17°C° 0 mm 5 mps 765 mmHg 52%
    20:00 +16°C° 0 mm 5 mps 765 mmHg 58%
    21:00 +16°C° 0 mm 5 mps 765 mmHg 62%
    22:00 +15°C° 0 mm 5 mps 765 mmHg 66%
    23:00 +15°C° 0 mm 5 mps 765 mmHg 70%

    19 Diciembre, Jueves

    Tiempo Temperatura Precipitaciones Viento Presión Humedad
    00:00 +14°C° 0 mm 5 mps 765 mmHg 70%
    01:00 +14°C° 0 mm 4 mps 765 mmHg 71%
    02:00 +14°C° 0 mm 4 mps 765 mmHg 72%
    03:00 +13°C° 0 mm 4 mps 765 mmHg 72%
    04:00 +13°C° 0 mm 4 mps 764 mmHg 73%
    05:00 +13°C° 0 mm 4 mps 764 mmHg 73%
    06:00 +13°C° 0 mm 4 mps 764 mmHg 72%
    07:00 +13°C° 0 mm 4 mps 764 mmHg 71%
    08:00 +14°C° 0 mm 4 mps 765 mmHg 69%
    09:00 +17°C° 0 mm 4 mps 765 mmHg 58%
    10:00 +19°C° 0 mm 4 mps 765 mmHg 48%
    11:00 +21°C° 0 mm 5 mps 765 mmHg 37%
    12:00 +22°C° 0 mm 5 mps 764 mmHg 32%
    13:00 +23°C° 0 mm 5 mps 763 mmHg 28%
    14:00 +25°C° 0 mm 5 mps 763 mmHg 23%
    15:00 +22°C° 0 mm 5 mps 763 mmHg 26%
    16:00 +21°C° 0 mm 4 mps 763 mmHg 29%
    17:00 +20°C° 0 mm 4 mps 763 mmHg 32%
    18:00 +19°C° 0 mm 4 mps 763 mmHg 34%
    19:00 +18°C° 0 mm 4 mps 763 mmHg 37%
    20:00 +17°C° 0 mm 4 mps 763 mmHg 40%
    21:00 +15°C° 0 mm 4 mps 763 mmHg 42%
    22:00 +16°C° 0 mm 3 mps 763 mmHg 43%
    23:00 +14°C° 0 mm 3 mps 763 mmHg 45%

    20 Diciembre, Viernes

    Tiempo Temperatura Precipitaciones Viento Presión Humedad
    00:00 +14°C° 0 mm 3 mps 763 mmHg 46%
    01:00 +14°C° 0 mm 3 mps 762 mmHg 47%
    02:00 +13°C° 0 mm 3 mps 762 mmHg 48%
    03:00 +13°C° 0 mm 3 mps 762 mmHg 51%
    04:00 +12°C° 0 mm 3 mps 762 mmHg 54%
    05:00 +12°C° 0 mm 3 mps 762 mmHg 57%
    06:00 +12°C° 0 mm 3 mps 762 mmHg 57%
    07:00 +14°C° 0 mm 2 mps 762 mmHg 58%
    08:00 +14°C° 0 mm 2 mps 763 mmHg 58%
    09:00 +16°C° 0 mm 3 mps 763 mmHg 51%
    10:00 +18°C° 0 mm 3 mps 762 mmHg 45%
    11:00 +20°C° 0 mm 3 mps 762 mmHg 38%
    12:00 +21°C° 0 mm 3 mps 762 mmHg 34%
    13:00 +22°C° 0 mm 3 mps 761 mmHg 30%
    14:00 +24°C° 0 mm 3 mps 761 mmHg 26%
    15:00 +22°C° 0 mm 3 mps 761 mmHg 27%
    16:00 +21°C° 0 mm 3 mps 761 mmHg 28%
    17:00 +20°C° 0 mm 3 mps 761 mmHg 29%
    18:00 +19°C° 0 mm 3 mps 761 mmHg 30%
    19:00 +18°C° 0 mm 4 mps 761 mmHg 31%
    20:00 +17°C° 0 mm 4 mps 762 mmHg 32%
    21:00 +17°C° 0 mm 4 mps 762 mmHg 42%
    22:00 +16°C° 0 mm 3 mps 762 mmHg 52%
    23:00 +14°C° 0 mm 3 mps 762 mmHg 61%

    21 Diciembre, Sábado

    Tiempo Temperatura Precipitaciones Viento Presión Humedad
    00:00 +14°C° 0 mm 3 mps 762 mmHg 66%
    01:00 +14°C° 0 mm 3 mps 761 mmHg 70%
    02:00 +13°C° 0 mm 3 mps 761 mmHg 75%
    03:00 +13°C° 0 mm 3 mps 761 mmHg 77%
    04:00 +12°C° 0 mm 3 mps 761 mmHg 79%
    05:00 +13°C° 0 mm 2 mps 761 mmHg 81%
    06:00 +13°C° 0 mm 3 mps 761 mmHg 79%
    07:00 +13°C° 0 mm 3 mps 761 mmHg 76%
    08:00 +13°C° 0 mm 3 mps 761 mmHg 74%
    09:00 +16°C° 0 mm 3 mps 761 mmHg 64%
    10:00 +18°C° 0 mm 4 mps 761 mmHg 53%
    11:00 +20°C° 0 mm 4 mps 761 mmHg 43%
    12:00 +21°C° 0 mm 4 mps 761 mmHg 39%
    13:00 +22°C° 0 mm 4 mps 760 mmHg 35%
    14:00 +23°C° 0 mm 4 mps 760 mmHg 31%
    15:00 +22°C° 0 mm 4 mps 760 mmHg 34%
    16:00 +21°C° 0 mm 4 mps 760 mmHg 37%
    17:00 +20°C° 0 mm 4 mps 760 mmHg 40%
    18:00 +19°C° 0 mm 4 mps 760 mmHg 46%
    19:00 +17°C° 0 mm 5 mps 760 mmHg 53%
    20:00 +16°C° 0 mm 5 mps 760 mmHg 60%
    21:00 +16°C° 0 mm 5 mps 760 mmHg 63%
    22:00 +15°C° 0 mm 4 mps 760 mmHg 67%
    23:00 +15°C° 0 mm 4 mps 760 mmHg 70%
    Mostrar más